GFSNGP_925_temp_045.txt.gz
Temp
26 27 27 27 26 26 26 26 25 26 27 28 29 29 29 28 28 27 27 27 27 27 26 24 22 21 20 18 17 17 18 17 15 14 13 12 11 10 9 8 7 7 7 6
24 26 26 26 27 27 27 27 27 27 27 29 29 29 29 28 27 26 26 25 25 25 24 23 21 20 18 17 16 16 16 14 13 13 12 11 11 9 9 8 7 6 6 6
22 25 25 23 25 26 27 27 27 25 27 28 28 28 28 27 27 25 24 23 23 23 22 21 19 18 16 16 15 15 14 13 12 11 9 9 8 7 7 6 6 4 4 4
21 18 20 24 27 27 26 27 28 27 28 28 28 29 27 27 26 23 22 21 20 20 19 18 17 16 15 15 14 13 12 11 10 9 8 8 8 7 6 6 5 5 6 6
20 21 23 25 26 25 26 26 28 27 28 28 28 26 23 24 24 22 20 20 19 18 17 16 16 15 15 14 13 12 11 10 10 9 9 8 8 7 6 6 6 5 5 4
20 20 20 24 26 27 27 24 28 28 28 27 26 22 25 21 21 20 18 17 17 16 16 15 15 14 14 13 12 11 11 10 9 9 9 8 6 6 5 4 5 5 5 6
19 20 23 26 27 28 23 24 28 28 27 26 25 25 24 20 18 18 17 16 15 15 15 14 14 13 13 12 11 10 9 8 7 7 6 6 6 7 7 7 6 5 5 5
19 20 19 24 24 24 25 27 27 27 27 26 25 21 20 18 18 17 16 15 15 14 13 13 13 12 12 10 8 7 7 6 7 7 7 7 7 6 6 6 5 5 4 4
21 22 24 23 25 25 27 27 27 26 26 25 22 20 19 18 17 16 15 15 14 13 12 12 11 10 9 8 7 7 7 7 6 6 6 6 6 5 6 5 4 4 3 3
21 23 24 24 23 25 26 26 27 26 26 24 21 19 18 17 16 16 16 15 14 12 11 11 10 10 8 8 7 7 7 6 6 6 5 5 5 4 4 3 2 1 1 1
21 24 24 25 24 24 25 25 25 24 25 23 21 19 18 17 16 16 15 14 12 11 10 9 9 8 7 7 7 7 6 5 4 4 4 4 3 2 1 -3 -3 -2 -2 -2
20 23 23 23 25 25 24 24 22 22 23 22 21 19 18 17 16 15 14 12 11 10 9 8 7 6 6 6 6 5 4 3 2 2 2 3 2 -0 -2 -2 -4 -5 -6 -6
22 23 21 22 22 22 24 24 23 21 22 21 20 19 17 16 15 13 12 11 10 8 7 6 4 4 3 3 3 3 3 1 -0 1 1 1 0 0 1 -4 -4 -5 -6 -7
23 22 18 19 21 19 20 22 19 21 21 20 19 17 16 14 12 11 11 9 8 6 4 3 2 1 0 1 0 -0 -1 -1 0 -0 -1 -1 -1 -2 -2 -2 -3 -3 -5 -6
19 18 18 16 16 16 17 17 16 18 18 18 17 15 14 12 11 10 8 6 4 3 1 0 -0 -1 -1 -0 -0 -1 -1 -2 -2 -3 -4 -5 -4 -4 -4 -4 -4 -5 -5 -5
14 14 15 15 15 14 14 14 15 14 14 14 13 12 11 9 8 6 4 3 1 1 -1 -2 -2 -2 -2 -2 -2 -4 -6 -5 -4 -4 -5 -5 -5 -5 -5 -5 -6 -5 -6 -7
13 14 13 13 13 12 13 13 13 11 10 10 9 8 7 4 1 -1 -2 -4 -5 -5 -5 -5 -6 -6 -5 -4 -3 -4 -5 -7 -7 -6 -6 -6 -7 -7 -7 -7 -7 -7 -7 -8
12 13 12 13 13 11 10 10 9 8 7 5 1 0 -1 -2 -3 -5 -6 -7 -7 -7 -7 -8 -8 -7 -7 -7 -6 -7 -7 -7 -7 -7 -7 -8 -9 -8 -9 -9 -9 -9 -9 -9
10 10 10 10 9 8 6 3 1 -0 -1 -1 -2 -3 -4 -5 -6 -7 -7 -7 -7 -8 -9 -9 -9 -9 -10 -10 -8 -8 -8 -8 -8 -8 -9 -10 -9 -9 -10 -10 -10 -10 -10 -11
2 1 1 1 0 -0 -0 -1 -2 -2 -3 -3 -4 -4 -5 -6 -6 -6 -6 -6 -7 -8 -9 -9 -9 -9 -10 -10 -9 -9 -10 -10 -10 -10 -10 -11 -10 -11 -11 -11 -11 -11 -11 -11
-1 -1 -1 -1 -2 -2 -2 -2 -2 -2 -3 -4 -4 -5 -5 -6 -6 -7 -7 -8 -9 -9 -9 -9 -9 -9 -10 -10 -10 -10 -10 -10 -11 -11 -11 -11 -11 -11 -11 -12 -12 -12 -12 -13
-1 -1 -2 -2 -2 -3 -3 -3 -4 -4 -5 -6 -6 -6 -6 -6 -7 -6 -7 -8 -9 -9 -9 -9 -10 -11 -11 -11 -11 -11 -11 -11 -12 -12 -12 -12 -12 -12 -13 -13 -13 -14 -14 -14
-2 -2 -3 -3 -3 -4 -4 -4 -4 -4 -4 -5 -5 -5 -5 -6 -6 -6 -7 -8 -9 -9 -8 -10 -12 -12 -12 -12 -11 -12 -12 -12 -12 -12 -13 -13 -13 -14 -14 -14 -15 -15 -15 -15
-3 -3 -3 -4 -4 -4 -4 -5 -5 -6 -6 -6 -6 -6 -6 -6 -7 -8 -8 -9 -10 -10 -10 -12 -13 -14 -13 -12 -12 -12 -13 -13 -13 -13 -13 -14 -14 -14 -15 -15 -16 -16 -16 -17
-4 -4 -4 -4 -4 -4 -4 -5 -5 -6 -6 -6 -7 -7 -7 -8 -7 -8 -9 -11 -11 -10 -11 -13 -14 -14 -13 -13 -13 -13 -14 -14 -14 -15 -15 -15 -15 -15 -16 -16 -16 -17 -18 -18
-5 -6 -6 -6 -5 -5 -5 -5 -5 -5 -5 -6 -7 -8 -8 -9 -9 -10 -10 -11 -11 -12 -12 -12 -13 -14 -13 -13 -14 -14 -14 -15 -15 -15 -16 -16 -16 -16 -16 -17 -17 -18 -19 -19
-7 -6 -6 -7 -7 -7 -7 -7 -7 -8 -8 -7 -8 -9 -9 -10 -10 -10 -11 -11 -12 -12 -12 -13 -13 -14 -15 -15 -15 -15 -15 -15 -16 -16 -17 -17 -17 -17 -18 -18 -19 -20 -20 -21

GFSNGP_925_temp_048.txt.gz
Temp
25 26 27 26 26 26 26 26 24 25 25 27 28 27 27 28 28 28 28 28 27 27 26 24 23 23 22 20 19 19 17 15 14 13 12 11 11 10 9 9 8 7 7 7
22 25 25 25 25 27 27 27 27 27 27 29 29 28 28 29 29 28 27 27 27 27 26 23 23 21 19 18 18 18 15 14 13 13 12 11 10 9 8 8 7 7 7 7
20 24 24 22 25 26 27 27 27 26 27 29 28 28 29 28 28 28 27 26 25 25 24 22 21 19 18 17 17 16 15 14 13 12 10 10 9 8 8 7 6 6 5 6
17 18 19 24 26 27 26 26 27 28 28 29 28 29 29 28 28 26 25 24 23 23 21 19 19 18 16 16 15 14 13 12 11 10 9 8 8 7 6 6 5 5 5 5
18 18 22 24 25 25 25 25 27 27 28 28 29 27 27 26 26 24 23 22 21 20 20 19 17 16 16 15 14 13 12 11 10 9 9 8 7 7 6 6 6 6 6 6
18 18 18 22 25 26 26 22 27 27 27 27 28 23 25 23 24 22 21 20 20 19 18 17 16 16 15 14 13 12 11 11 10 10 9 8 7 7 6 6 5 5 5 5
17 17 20 24 25 26 22 22 26 27 27 27 26 25 24 22 22 21 20 19 18 17 17 16 15 15 14 13 12 12 11 10 9 8 7 7 6 6 6 6 6 5 5 5
17 17 18 24 24 23 24 24 26 26 26 26 25 22 21 21 20 19 19 18 17 17 16 15 15 14 13 12 11 9 8 7 7 7 7 7 7 7 7 6 5 5 4 4
19 20 21 22 22 24 24 25 25 25 26 26 22 21 20 19 19 18 18 17 17 16 15 14 14 13 12 10 9 7 7 8 7 7 7 7 6 6 6 5 4 3 3 2
17 19 20 22 21 23 23 22 25 25 26 26 21 21 19 19 18 18 18 17 16 15 14 13 13 12 10 9 8 8 8 7 7 6 6 6 5 5 4 2 2 1 1 1
20 21 22 22 20 21 23 23 24 24 24 22 22 20 19 19 18 17 17 16 15 13 13 12 11 10 9 8 8 8 7 6 5 5 5 4 3 2 0 -1 -1 -1 -2 -3
19 22 20 21 21 22 22 22 23 23 22 22 23 21 19 18 17 17 17 15 14 13 12 11 10 9 8 8 8 7 5 4 3 3 4 4 1 -1 -2 -2 -3 -3 -4 -5
21 22 20 20 20 21 21 20 23 22 22 21 22 20 19 17 17 17 15 13 13 11 10 9 8 7 7 6 6 4 2 2 2 2 2 1 1 0 -4 -4 -4 -4 -5 -6
21 21 20 21 19 18 17 18 20 22 21 21 21 20 18 16 15 15 13 12 11 9 7 5 4 2 2 2 2 1 1 1 1 0 -1 -1 -1 -1 -2 -2 -3 -5 -6 -6
16 17 18 17 17 17 17 17 17 18 19 19 19 16 16 15 13 12 11 9 7 5 3 2 1 1 0 0 -0 -0 -1 -2 -2 -3 -4 -4 -4 -4 -4 -4 -4 -4 -4 -5
15 15 15 16 16 16 14 14 14 14 14 13 14 14 13 12 10 7 6 4 3 2 -1 -1 -2 -2 -1 -2 -3 -4 -5 -5 -5 -5 -5 -5 -5 -5 -5 -5 -5 -5 -6 -6
12 12 12 12 14 14 14 13 14 12 10 9 6 6 4 -1 -2 -3 -3 -4 -5 -5 -5 -5 -5 -4 -4 -5 -5 -6 -7 -7 -7 -6 -6 -6 -7 -6 -6 -7 -7 -7 -7 -8
10 11 11 11 12 12 10 7 5 3 2 -0 -1 -2 -3 -4 -5 -6 -6 -7 -7 -7 -7 -7 -7 -7 -7 -7 -7 -8 -8 -8 -7 -7 -7 -8 -8 -8 -8 -8 -8 -9 -9 -9
4 4 3 4 3 2 1 0 -0 -1 -2 -3 -4 -5 -5 -6 -6 -7 -7 -7 -8 -8 -9 -9 -9 -9 -9 -9 -9 -9 -8 -8 -8 -8 -9 -9 -9 -9 -9 -9 -10 -10 -11 -11
-0 -0 -1 -1 -1 -1 -2 -2 -3 -3 -4 -4 -5 -5 -6 -6 -6 -6 -7 -7 -8 -9 -9 -9 -10 -10 -10 -9 -9 -9 -9 -9 -9 -9 -9 -10 -10 -10 -11 -10 -11 -11 -11 -12
-1 -2 -2 -2 -3 -3 -3 -3 -4 -4 -4 -5 -5 -6 -6 -6 -7 -7 -8 -8 -9 -9 -9 -9 -10 -10 -10 -10 -9 -10 -10 -10 -10 -10 -10 -10 -11 -11 -11 -11 -12 -12 -13 -13
-2 -2 -3 -3 -3 -3 -4 -5 -5 -5 -5 -6 -6 -6 -6 -6 -7 -8 -8 -9 -9 -9 -9 -10 -11 -10 -11 -10 -10 -10 -11 -11 -11 -11 -11 -11 -12 -12 -12 -13 -13 -13 -14 -14
-3 -3 -4 -4 -4 -5 -5 -5 -5 -5 -5 -5 -5 -6 -6 -6 -7 -7 -8 -9 -8 -9 -10 -11 -11 -12 -12 -11 -11 -11 -11 -12 -12 -12 -12 -12 -13 -13 -14 -14 -14 -15 -15 -15
-3 -4 -4 -4 -5 -5 -5 -5 -6 -6 -6 -6 -7 -6 -6 -7 -8 -9 -9 -9 -9 -10 -11 -12 -12 -12 -12 -12 -12 -12 -12 -13 -13 -13 -13 -14 -14 -14 -14 -15 -15 -15 -16 -16
-5 -5 -5 -4 -4 -4 -5 -5 -5 -6 -6 -7 -7 -8 -8 -8 -8 -9 -10 -10 -10 -10 -12 -12 -13 -13 -13 -13 -13 -13 -13 -14 -14 -14 -14 -15 -15 -15 -15 -16 -16 -16 -17 -18
-6 -6 -7 -7 -7 -7 -6 -7 -7 -7 -7 -7 -8 -8 -9 -9 -10 -10 -11 -11 -11 -11 -12 -12 -13 -14 -13 -14 -14 -15 -14 -14 -15 -15 -16 -16 -17 -17 -17 -17 -17 -18 -18 -19
-8 -7 -7 -7 -8 -8 -9 -9 -8 -9 -9 -8 -9 -9 -10 -10 -10 -11 -11 -12 -12 -12 -13 -13 -13 -14 -14 -15 -15 -15 -16 -16 -16 -17 -17 -17 -18 -18 -18 -18 -19 -19 -20 -20

GFSNGP_925_temp_054.txt.gz
Temp
21 21 22 22 22 22 21 20 19 20 20 21 21 21 21 21 21 22 21 20 19 19 17 17 19 19 20 18 17 17 17 16 16 16 16 15 14 13 14 13 13 12 11 10
18 20 21 20 22 22 22 22 21 21 20 22 23 22 21 21 22 22 21 20 20 19 18 17 17 17 18 18 17 16 16 16 15 13 13 12 12 13 12 12 11 11 10 10
17 19 21 18 19 20 21 21 21 20 20 22 22 22 21 20 21 21 21 20 19 20 18 17 16 17 16 16 17 16 14 13 12 12 11 11 11 11 11 10 9 8 8 8
13 15 16 20 22 21 21 22 21 22 22 21 22 21 21 22 21 20 19 20 19 17 16 16 15 15 14 14 13 12 12 11 11 10 10 10 10 9 9 8 8 7 7 6
12 15 18 19 21 20 20 20 22 22 23 22 23 22 23 21 20 20 18 17 16 17 15 15 14 13 13 11 11 10 10 10 9 9 8 7 7 8 8 7 6 6 6 6
12 13 16 18 20 22 22 17 21 21 22 21 21 18 18 20 19 18 16 15 14 15 14 14 13 13 12 10 10 9 9 9 9 8 8 8 8 8 7 6 6 5 5 5
11 11 13 16 18 21 19 19 21 22 22 22 19 18 19 18 18 16 15 14 15 14 13 12 13 12 10 10 9 9 9 9 8 8 8 8 7 6 6 5 5 4 4 4
11 12 13 17 19 20 17 15 19 19 20 19 19 18 17 16 15 14 14 13 13 12 12 12 13 13 10 9 9 9 9 9 8 8 7 7 6 6 5 5 4 2 1 -0
12 12 15 16 17 16 17 17 17 16 17 20 17 17 16 15 14 14 13 12 13 12 11 12 12 12 9 8 9 9 8 7 7 7 7 6 6 5 5 4 2 -1 -1 -2
13 15 16 17 16 16 17 17 17 17 17 18 18 17 15 14 13 13 12 12 12 11 10 9 11 10 10 8 9 8 7 6 6 6 6 5 5 4 4 3 1 -1 -2 -4
14 15 17 17 17 17 17 15 17 17 18 17 17 16 15 14 12 13 12 12 12 11 9 8 9 8 8 8 8 6 6 6 5 4 4 3 2 2 2 1 2 0 -2 -3
12 15 16 16 17 17 17 18 18 17 17 16 17 16 15 13 13 12 12 11 10 9 8 7 7 7 7 7 8 7 4 3 2 2 0 -0 -0 -2 -2 -1 -1 -1 -2 -2
11 11 15 16 15 16 17 15 15 15 16 15 15 15 14 12 11 11 10 9 8 6 3 4 4 5 6 7 7 5 2 1 0 -0 -1 -2 -3 -3 -5 -5 -4 -4 -4 -4
10 11 13 11 11 11 12 13 12 12 10 10 11 15 13 10 10 9 7 4 2 2 1 0 -0 -0 1 3 3 1 -0 -0 -1 -2 -2 -3 -3 -4 -4 -5 -5 -6 -6 -7
8 8 9 10 10 10 10 10 7 5 4 3 3 7 8 5 3 2 1 0 -1 -2 -3 -3 -4 -4 -3 -2 -2 -3 -3 -4 -3 -3 -4 -4 -4 -4 -5 -5 -5 -6 -7 -8
7 6 6 6 5 5 5 5 3 1 0 -0 -1 -2 -2 -3 -4 -5 -5 -4 -3 -4 -5 -5 -5 -5 -4 -4 -3 -3 -4 -4 -4 -5 -5 -6 -6 -6 -6 -6 -7 -7 -7 -8
5 5 4 4 3 2 1 1 0 -1 -2 -2 -3 -3 -4 -4 -5 -6 -6 -6 -6 -6 -6 -6 -6 -4 -3 -3 -4 -5 -6 -6 -6 -6 -7 -7 -7 -8 -8 -8 -8 -9 -9 -9
2 2 2 1 1 0 -1 -2 -3 -3 -4 -5 -5 -5 -5 -5 -6 -7 -7 -8 -8 -8 -8 -7 -7 -6 -6 -6 -6 -7 -7 -7 -8 -8 -8 -9 -9 -9 -9 -9 -9 -10 -10 -11
-1 -1 -2 -2 -2 -3 -3 -4 -4 -5 -5 -5 -6 -6 -7 -7 -8 -8 -8 -8 -9 -9 -9 -8 -8 -8 -8 -8 -8 -8 -8 -9 -9 -9 -10 -10 -10 -10 -10 -11 -11 -11 -11 -12
-3 -4 -4 -4 -5 -5 -5 -5 -6 -6 -6 -6 -7 -7 -8 -8 -8 -9 -9 -9 -9 -10 -10 -9 -9 -10 -10 -9 -10 -10 -10 -10 -10 -10 -11 -11 -11 -11 -11 -12 -12 -12 -13 -13
-4 -4 -5 -5 -5 -5 -6 -6 -6 -6 -7 -7 -7 -8 -8 -8 -8 -8 -9 -9 -10 -10 -10 -10 -10 -10 -10 -10 -10 -11 -11 -11 -11 -12 -12 -12 -12 -12 -13 -13 -13 -14 -14 -14
-5 -5 -5 -6 -6 -6 -6 -6 -6 -6 -7 -7 -8 -8 -8 -9 -9 -9 -10 -11 -11 -11 -11 -11 -11 -11 -11 -11 -12 -12 -12 -13 -13 -13 -13 -14 -14 -14 -14 -15 -15 -15 -15 -16
-5 -5 -6 -6 -6 -7 -7 -7 -7 -7 -8 -8 -8 -9 -9 -9 -9 -10 -10 -12 -12 -12 -12 -12 -12 -12 -12 -13 -13 -13 -14 -14 -14 -14 -15 -15 -15 -16 -16 -16 -16 -16 -16 -17
-7 -6 -7 -6 -6 -7 -7 -8 -8 -8 -9 -9 -9 -10 -10 -11 -11 -12 -12 -12 -12 -13 -13 -13 -13 -13 -14 -14 -14 -15 -15 -15 -15 -16 -16 -16 -16 -17 -17 -17 -18 -18 -18 -18
-8 -8 -9 -8 -8 -8 -8 -8 -9 -9 -10 -10 -10 -11 -11 -11 -11 -12 -12 -13 -13 -13 -14 -14 -14 -15 -15 -15 -16 -16 -16 -16 -17 -17 -17 -17 -18 -18 -18 -19 -19 -20 -20 -20
-9 -9 -10 -10 -10 -10 -10 -10 -10 -10 -11 -12 -12 -12 -12 -12 -12 -13 -13 -14 -14 -14 -15 -16 -16 -16 -16 -17 -17 -17 -17 -17 -18 -18 -19 -19 -19 -19 -20 -20 -20 -21 -21 -21
-11 -11 -11 -11 -12 -12 -12 -12 -13 -13 -13 -14 -14 -14 -13 -14 -14 -14 -14 -15 -15 -16 -16 -17 -17 -17 -17 -18 -18 -18 -18 -19 -19 -19 -19 -20 -20 -21 -21 -21 -21 -22 -22 -23

GFSNGP_925_temp_057.txt.gz
Temp
17 19 20 21 20 19 19 19 19 20 18 21 20 20 21 21 20 20 19 18 17 17 18 18 18 18 18 17 16 16 15 15 16 15 14 15 14 14 13 13 13 13 14 13
15 18 19 19 20 21 20 19 19 19 19 20 21 20 20 20 20 20 19 19 19 18 17 16 18 18 18 18 17 16 16 16 15 14 14 15 13 13 13 13 13 12 12 12
13 14 17 16 18 20 20 20 20 18 19 21 21 19 19 20 19 19 20 19 18 18 18 19 19 18 17 18 17 16 16 15 14 14 13 13 13 13 12 11 12 11 11 11
12 12 14 18 20 21 20 20 20 20 21 21 20 20 19 19 19 19 19 18 17 17 17 19 18 18 17 17 16 15 15 14 13 13 12 11 11 11 10 10 10 10 9 8
13 13 13 18 19 19 19 20 20 20 20 21 21 21 19 20 18 18 18 18 17 18 16 16 17 17 16 14 14 13 12 12 12 12 10 10 9 9 9 9 8 8 7 7
11 12 14 15 17 19 20 18 19 20 20 20 19 18 18 18 18 17 16 15 14 15 15 14 13 15 13 11 11 11 11 10 10 10 10 8 9 9 9 8 8 7 6 5
12 12 11 14 15 16 16 17 18 20 21 20 19 21 21 17 17 17 15 14 14 14 13 13 13 13 11 10 10 10 10 10 10 9 9 9 8 7 6 6 5 4 4 3
11 11 12 14 14 13 14 15 17 17 17 16 16 17 18 18 16 15 14 13 13 12 11 12 12 12 9 9 9 10 9 8 8 8 7 7 7 5 5 4 3 2 1 0
11 11 13 14 13 13 12 14 16 17 17 15 15 16 15 15 14 14 13 11 12 11 9 10 11 11 9 8 9 8 8 7 6 6 6 6 5 4 3 3 1 -1 -2 -3
11 13 14 15 14 15 15 15 15 15 16 16 15 14 14 14 14 13 11 10 11 10 9 9 10 10 10 8 8 8 6 6 5 5 4 4 4 4 3 1 -0 -2 -3 -5
11 13 14 15 16 16 16 16 15 16 16 16 15 15 14 13 13 12 11 11 11 10 8 7 8 8 8 8 8 6 4 4 3 3 3 2 1 1 1 0 2 -0 -2 -3
9 10 9 13 12 12 14 15 16 15 16 15 15 16 16 13 12 11 10 9 8 7 7 6 6 6 7 7 7 5 2 1 1 0 -1 -1 -2 -3 -2 -0 0 -0 -1 -1
9 8 8 10 11 10 11 11 10 9 8 9 9 10 14 11 9 8 8 6 4 2 2 2 2 3 3 4 5 3 1 -0 -1 -2 -2 -3 -4 -4 -6 -6 -4 -3 -3 -4
7 7 9 9 7 7 7 8 7 5 4 3 4 6 7 7 4 3 2 1 -0 -1 -2 -2 -2 -2 1 2 1 -1 -2 -3 -3 -4 -4 -3 -3 -4 -5 -5 -6 -7 -6 -6
6 6 6 6 5 4 4 4 3 1 1 -0 -1 -1 -0 -1 -1 -2 -2 -3 -3 -4 -4 -4 -4 -4 -4 -3 -2 -3 -4 -4 -4 -4 -4 -4 -4 -4 -4 -5 -6 -6 -7 -8
4 6 6 4 3 2 1 0 -0 -1 -2 -2 -3 -3 -4 -4 -4 -5 -5 -4 -4 -4 -5 -5 -5 -4 -4 -4 -4 -4 -4 -3 -4 -4 -5 -5 -5 -5 -6 -6 -6 -6 -7 -8
3 5 3 4 2 0 -1 -1 -1 -2 -3 -3 -4 -4 -5 -5 -6 -6 -7 -7 -7 -7 -7 -7 -7 -5 -4 -4 -4 -5 -6 -6 -6 -6 -7 -7 -7 -8 -8 -8 -8 -8 -9 -9
1 -0 -0 0 -0 -1 -2 -3 -3 -4 -4 -5 -6 -6 -7 -7 -7 -8 -8 -8 -8 -8 -8 -8 -7 -7 -7 -7 -7 -7 -8 -8 -8 -9 -9 -9 -9 -9 -9 -9 -10 -10 -10 -11
-2 -3 -3 -3 -3 -3 -4 -4 -5 -6 -6 -7 -7 -7 -8 -8 -8 -9 -9 -9 -9 -9 -10 -9 -8 -8 -8 -8 -8 -9 -9 -9 -10 -10 -10 -10 -10 -11 -11 -11 -11 -11 -12 -12
-4 -4 -5 -5 -5 -5 -5 -6 -6 -7 -7 -8 -8 -8 -8 -9 -9 -10 -10 -10 -11 -10 -10 -10 -10 -10 -10 -10 -10 -10 -10 -11 -11 -11 -11 -11 -12 -12 -12 -13 -13 -13 -13 -14
-5 -6 -6 -6 -6 -6 -7 -7 -7 -8 -8 -8 -8 -9 -9 -9 -10 -10 -10 -11 -11 -11 -11 -11 -11 -11 -11 -11 -11 -12 -12 -12 -12 -13 -13 -13 -14 -14 -14 -14 -14 -15 -15 -15
-6 -6 -6 -7 -7 -7 -7 -7 -8 -8 -8 -8 -8 -9 -10 -10 -11 -12 -12 -12 -12 -12 -12 -12 -12 -12 -12 -12 -13 -13 -13 -13 -14 -14 -14 -15 -15 -15 -16 -16 -16 -16 -16 -16
-6 -6 -7 -7 -7 -8 -8 -9 -9 -9 -9 -9 -10 -10 -10 -10 -11 -11 -12 -13 -13 -13 -13 -13 -13 -13 -13 -14 -14 -14 -14 -15 -15 -16 -16 -16 -17 -17 -17 -17 -17 -17 -18 -18
-7 -7 -7 -7 -8 -8 -8 -9 -9 -10 -10 -11 -11 -11 -11 -12 -13 -13 -13 -13 -13 -14 -14 -14 -14 -14 -15 -15 -16 -16 -16 -16 -16 -17 -17 -17 -18 -18 -18 -19 -19 -19 -20 -20
-9 -9 -9 -9 -9 -9 -9 -10 -11 -11 -12 -12 -12 -12 -13 -12 -13 -14 -14 -14 -14 -15 -15 -16 -16 -16 -16 -16 -17 -17 -17 -18 -18 -18 -19 -19 -19 -19 -20 -20 -21 -21 -21 -21
-10 -11 -11 -12 -11 -12 -11 -12 -13 -13 -13 -14 -14 -13 -13 -13 -14 -14 -14 -15 -15 -16 -17 -17 -17 -17 -18 -18 -18 -18 -18 -19 -19 -19 -19 -20 -20 -21 -21 -21 -21 -22 -22 -22
-12 -12 -12 -13 -13 -13 -13 -13 -14 -15 -14 -14 -15 -15 -15 -15 -15 -15 -16 -16 -17 -17 -17 -18 -18 -18 -19 -19 -19 -19 -19 -20 -20 -20 -21 -21 -21 -22 -22 -22 -22 -22 -23 -23

GFSNGP_925_temp_060.txt.gz
Temp
15 16 17 18 19 18 18 17 17 19 17 19 19 19 19 20 20 19 19 19 16 15 16 16 16 16 15 15 14 14 13 13 13 13 14 13 13 13 13 13 13 14 13 12
15 15 15 16 18 18 18 18 17 18 18 18 19 19 19 19 19 19 19 19 18 16 15 15 16 16 16 16 15 14 14 13 14 14 14 14 13 13 13 13 13 13 13 12
13 13 14 15 17 17 18 19 18 18 18 19 19 18 18 19 18 19 19 18 17 17 17 17 16 17 16 16 16 15 14 14 14 14 14 14 13 13 13 13 12 12 12 11
11 13 13 16 17 17 17 18 18 18 19 20 19 20 19 17 18 17 17 18 17 17 16 18 18 17 17 17 17 15 14 14 14 14 14 13 13 13 12 12 11 11 11 11
10 12 13 15 18 16 15 16 18 17 18 19 19 20 19 18 17 17 17 15 15 17 18 19 19 18 16 16 16 15 14 14 14 13 13 13 11 12 11 10 10 9 9 8
11 11 12 14 15 14 15 16 15 16 17 17 18 16 17 20 19 18 16 14 14 16 18 17 17 16 15 12 13 13 13 12 12 12 12 11 11 10 10 8 7 7 6 6
11 12 11 13 14 14 15 15 12 12 14 15 15 15 16 15 17 17 16 15 14 13 13 14 14 14 13 11 12 11 11 11 11 11 11 10 9 8 7 6 5 4 4 3
10 10 10 13 14 16 14 12 13 14 13 14 14 14 14 14 14 14 15 15 13 12 12 12 12 13 10 9 9 10 10 10 9 9 9 7 6 4 4 3 2 1 1 -0
10 10 12 12 14 13 12 13 13 14 14 14 13 14 13 14 12 12 12 12 11 11 9 10 10 12 9 7 9 9 8 6 6 6 5 5 5 3 2 1 -0 -1 -2 -3
11 13 12 12 12 12 12 12 15 16 15 14 13 14 13 12 11 10 10 10 10 10 8 7 9 10 9 8 8 7 5 4 4 4 3 3 2 2 1 0 -1 -2 -3 -4
10 11 11 12 11 10 9 11 14 15 15 14 13 14 14 12 11 10 9 9 9 8 7 6 8 7 7 8 8 6 5 3 3 3 3 1 1 0 0 0 2 1 -1 -2
8 9 9 9 9 7 8 8 8 8 11 8 6 7 9 11 9 9 7 7 5 4 3 3 4 4 5 6 6 4 2 1 0 -0 -1 -1 -2 -3 -2 -1 -1 -1 -3 -3
8 7 6 7 8 6 5 6 6 5 3 3 4 3 6 4 3 3 2 2 1 -0 -1 -0 -0 1 2 3 4 3 -0 -1 -2 -2 -3 -4 -4 -5 -5 -6 -4 -4 -4 -4
7 6 7 6 5 4 4 4 3 2 0 -0 0 0 -0 -1 -1 -2 -2 -2 -2 -3 -3 -3 -3 -3 -2 -0 0 -1 -3 -3 -4 -4 -5 -5 -5 -5 -5 -6 -6 -7 -6 -6
4 4 6 5 4 3 2 2 1 -1 -1 -2 -3 -3 -3 -3 -3 -3 -3 -4 -4 -4 -4 -4 -4 -4 -4 -3 -3 -4 -4 -4 -4 -4 -4 -4 -4 -5 -5 -6 -6 -7 -7 -8
3 3 5 5 2 1 0 -0 -1 -2 -2 -3 -3 -4 -5 -5 -6 -6 -6 -6 -6 -6 -6 -6 -6 -6 -5 -5 -5 -5 -5 -5 -5 -5 -5 -5 -5 -6 -6 -6 -7 -7 -8 -9
2 3 2 2 1 -1 -2 -2 -2 -3 -3 -4 -5 -5 -6 -6 -6 -7 -8 -8 -8 -8 -8 -8 -8 -6 -6 -6 -6 -7 -7 -7 -7 -7 -7 -8 -8 -8 -8 -8 -9 -9 -10 -10
-1 -2 -2 -2 -2 -2 -3 -3 -4 -5 -5 -6 -7 -7 -8 -8 -8 -8 -9 -9 -9 -9 -9 -9 -8 -7 -7 -7 -7 -8 -8 -9 -9 -9 -9 -9 -9 -9 -10 -10 -10 -11 -11 -11
-3 -3 -3 -4 -4 -4 -5 -5 -6 -7 -8 -8 -8 -9 -9 -9 -10 -10 -10 -10 -10 -10 -10 -10 -9 -9 -9 -9 -9 -9 -10 -10 -10 -11 -11 -11 -11 -11 -11 -12 -12 -12 -13 -13
-4 -5 -5 -6 -6 -6 -7 -7 -7 -8 -8 -8 -9 -9 -10 -10 -10 -11 -11 -11 -11 -11 -11 -11 -10 -11 -11 -10 -10 -11 -11 -11 -12 -12 -12 -13 -13 -13 -13 -14 -14 -14 -14 -15
-6 -6 -7 -7 -7 -7 -8 -8 -8 -8 -9 -10 -10 -11 -11 -11 -11 -11 -11 -11 -12 -12 -12 -12 -12 -12 -12 -12 -12 -12 -12 -13 -13 -14 -14 -14 -14 -15 -15 -15 -16 -16 -16 -16
-7 -7 -7 -8 -8 -8 -9 -9 -9 -9 -9 -10 -10 -11 -11 -12 -12 -13 -13 -13 -13 -13 -13 -13 -13 -13 -13 -13 -13 -14 -14 -14 -15 -15 -16 -16 -16 -16 -17 -17 -17 -17 -17 -18
-7 -7 -8 -8 -8 -9 -9 -10 -10 -10 -10 -11 -12 -12 -12 -12 -13 -13 -13 -15 -14 -14 -14 -14 -14 -14 -14 -15 -15 -15 -16 -16 -16 -17 -17 -17 -18 -18 -18 -19 -19 -19 -19 -20
-8 -8 -8 -9 -9 -9 -10 -10 -11 -11 -11 -12 -12 -12 -13 -14 -14 -15 -15 -15 -15 -15 -16 -16 -16 -16 -16 -16 -16 -17 -17 -17 -18 -18 -18 -19 -19 -19 -19 -20 -20 -20 -21 -21
-10 -10 -10 -10 -9 -10 -11 -11 -12 -13 -13 -14 -14 -14 -14 -14 -15 -15 -15 -16 -16 -16 -17 -17 -17 -17 -17 -17 -18 -18 -18 -19 -19 -19 -19 -20 -20 -21 -21 -21 -21 -22 -22 -22
-11 -11 -12 -12 -12 -12 -13 -13 -14 -14 -14 -15 -15 -15 -15 -15 -15 -15 -16 -16 -17 -17 -18 -18 -18 -18 -18 -19 -19 -19 -19 -19 -20 -20 -20 -21 -21 -21 -22 -22 -22 -22 -22 -22
-13 -13 -13 -14 -14 -13 -13 -14 -14 -15 -15 -15 -16 -16 -15 -16 -16 -17 -17 -17 -18 -18 -19 -19 -19 -19 -19 -20 -20 -20 -20 -20 -20 -21 -21 -21 -22 -22 -22 -22 -22 -23 -23 -23

GFSNGP_925_temp_063.txt.gz
Temp
15 16 16 16 17 19 19 19 19 20 20 21 21 22 24 23 21 21 21 20 20 20 19 19 17 16 16 15 14 13 13 13 13 13 12 12 12 12 12 12 13 13 13 13
15 16 16 17 17 18 18 19 19 19 20 21 22 20 20 21 22 22 22 22 21 20 20 18 18 17 16 16 15 14 13 13 14 13 13 13 13 13 12 12 13 12 12 12
15 13 15 16 16 17 18 19 19 18 20 21 21 20 20 21 22 21 21 21 21 20 19 19 19 17 17 16 15 14 14 14 14 14 13 13 13 13 13 12 12 12 12 12
13 13 14 17 16 17 17 18 18 18 18 19 19 20 21 21 21 21 20 20 20 20 19 19 19 18 18 17 16 15 15 15 14 14 14 14 13 13 13 12 12 12 12 12
13 14 15 17 17 16 16 18 14 15 16 16 17 18 20 20 19 19 19 19 19 19 19 19 18 18 17 16 16 15 15 15 14 14 14 14 13 13 12 12 12 12 11 11
11 12 13 16 16 15 15 16 15 15 15 15 16 17 18 18 16 17 19 18 18 17 16 16 17 16 16 15 15 15 15 15 14 13 13 12 12 12 12 11 10 9 8 8
11 12 14 14 15 15 16 16 15 14 15 15 15 16 16 15 16 16 15 16 16 14 14 14 13 14 15 14 14 12 12 12 12 12 12 12 11 10 9 8 7 5 5 4
12 12 12 14 15 15 15 15 14 15 15 15 16 15 15 15 15 14 14 13 13 13 11 10 11 12 11 11 10 11 12 11 11 11 10 9 9 7 6 5 3 1 1 0
13 13 13 13 13 12 12 12 13 13 14 16 15 15 14 15 15 14 12 12 11 11 10 9 10 10 10 7 8 9 8 7 7 7 6 6 6 4 2 1 -0 -1 -2 -3
12 13 13 13 12 11 11 11 10 10 11 13 14 15 14 14 13 12 12 11 10 9 8 7 7 7 7 7 8 7 6 4 4 4 3 3 2 2 1 0 -1 -1 -2 -4
11 12 12 11 9 8 9 9 8 8 7 7 7 9 10 12 10 9 9 7 6 6 5 4 4 4 5 6 6 4 3 2 1 1 1 -0 -0 -0 -0 -0 1 -0 -2 -3
12 8 8 9 10 7 7 7 6 6 5 4 4 5 7 5 4 4 4 3 3 3 3 2 1 0 2 3 3 2 1 0 -0 -1 -2 -2 -3 -4 -2 -1 -1 -1 -3 -3
7 7 7 8 7 5 5 5 4 3 2 2 2 2 2 1 0 -0 -0 -1 -1 -1 -2 -1 -1 -1 -1 -0 1 1 -1 -1 -2 -2 -2 -3 -4 -4 -5 -5 -5 -4 -5 -5
6 5 8 7 5 4 3 3 2 1 -0 -1 -1 -1 -1 -1 -2 -2 -2 -3 -3 -3 -3 -3 -3 -3 -3 -1 -2 -3 -4 -4 -4 -4 -4 -5 -5 -5 -5 -5 -6 -6 -6 -6
3 3 4 5 4 2 2 2 1 -1 -1 -2 -3 -3 -3 -3 -4 -4 -4 -4 -4 -5 -5 -5 -5 -5 -5 -4 -4 -4 -5 -5 -5 -5 -5 -5 -5 -5 -6 -6 -6 -7 -7 -8
2 3 3 3 1 0 -0 -1 -1 -2 -2 -3 -4 -4 -5 -6 -6 -6 -7 -7 -6 -6 -7 -7 -7 -7 -6 -5 -6 -6 -6 -5 -6 -6 -6 -6 -6 -6 -6 -6 -7 -7 -8 -9
1 2 0 0 -0 -2 -2 -3 -3 -4 -4 -5 -5 -6 -7 -7 -7 -8 -8 -9 -9 -9 -9 -9 -8 -7 -7 -7 -7 -7 -7 -7 -7 -8 -8 -8 -8 -8 -8 -8 -8 -9 -10 -11
-1 -2 -2 -2 -2 -3 -4 -4 -5 -6 -6 -7 -8 -8 -8 -9 -9 -9 -9 -9 -9 -10 -10 -10 -9 -8 -8 -7 -8 -8 -9 -9 -9 -9 -9 -10 -10 -10 -10 -10 -10 -11 -12 -13
-3 -4 -4 -4 -5 -5 -5 -6 -7 -8 -9 -9 -9 -10 -10 -10 -10 -10 -10 -10 -10 -10 -11 -11 -10 -10 -10 -10 -10 -10 -10 -10 -11 -11 -11 -11 -11 -11 -12 -12 -12 -13 -13 -13
-5 -6 -6 -6 -7 -7 -7 -8 -9 -9 -9 -10 -10 -10 -10 -11 -11 -11 -12 -12 -12 -12 -12 -12 -12 -12 -12 -11 -11 -12 -12 -12 -12 -13 -13 -13 -13 -13 -14 -14 -14 -15 -15 -15
-7 -7 -7 -8 -8 -8 -8 -9 -10 -10 -10 -11 -11 -11 -12 -12 -12 -12 -12 -13 -14 -13 -13 -12 -13 -13 -13 -13 -13 -14 -14 -14 -15 -15 -15 -15 -15 -16 -16 -16 -17 -17 -17 -17
-7 -8 -8 -9 -9 -9 -10 -10 -10 -10 -10 -11 -11 -11 -11 -12 -13 -14 -15 -14 -15 -14 -15 -15 -14 -14 -14 -14 -15 -15 -16 -16 -16 -16 -17 -17 -17 -18 -18 -18 -19 -19 -19 -19
-8 -8 -9 -9 -9 -10 -10 -11 -11 -11 -12 -12 -13 -13 -13 -13 -13 -13 -14 -16 -16 -15 -16 -16 -15 -15 -15 -15 -16 -16 -17 -17 -18 -18 -18 -18 -19 -19 -20 -20 -20 -20 -21 -21
-8 -9 -9 -10 -10 -10 -10 -11 -11 -12 -12 -13 -14 -13 -13 -14 -15 -15 -16 -16 -16 -16 -17 -17 -17 -17 -17 -17 -17 -18 -18 -18 -18 -19 -19 -19 -20 -20 -21 -21 -21 -22 -21 -21
-10 -10 -10 -10 -10 -10 -11 -11 -12 -13 -13 -14 -14 -15 -15 -16 -16 -17 -16 -17 -17 -17 -17 -18 -18 -18 -18 -18 -18 -19 -19 -19 -19 -19 -20 -20 -21 -21 -21 -21 -22 -22 -22 -22
-11 -11 -12 -12 -12 -12 -12 -13 -13 -14 -14 -15 -16 -16 -16 -16 -16 -16 -17 -17 -17 -18 -18 -18 -19 -19 -19 -19 -19 -19 -20 -20 -20 -20 -21 -21 -22 -22 -22 -22 -22 -22 -22 -23
-13 -13 -13 -14 -15 -15 -14 -14 -15 -16 -16 -16 -17 -17 -16 -17 -17 -17 -18 -18 -19 -19 -19 -19 -19 -20 -20 -20 -20 -20 -21 -21 -21 -21 -22 -22 -22 -22 -22 -22 -22 -22 -23 -23

GFSNGP_925_temp_066.txt.gz
Temp
18 18 18 19 19 21 22 22 22 23 23 24 25 25 26 26 26 27 27 26 27 26 26 25 23 22 21 20 18 18 17 17 17 16 16 15 15 15 15 14 14 14 15 15
16 18 18 18 20 21 21 22 22 22 22 25 25 25 25 24 26 27 27 27 27 27 27 26 25 23 21 20 19 18 18 18 18 17 16 16 15 15 15 15 15 15 15 15
15 17 18 17 19 20 20 21 22 21 22 23 23 23 23 24 24 24 26 25 26 26 26 26 26 24 23 21 20 19 18 18 18 17 17 16 16 16 15 15 15 14 15 15
15 15 14 19 20 20 20 20 20 20 20 20 21 21 22 21 20 21 22 23 24 25 25 24 23 24 23 23 21 20 19 18 18 18 17 17 16 16 16 16 15 14 14 14
15 15 18 20 19 19 20 18 19 19 20 20 21 22 21 20 19 19 21 22 23 22 22 22 22 21 22 23 23 21 20 19 19 18 17 17 17 16 16 16 15 14 13 13
13 15 15 19 18 18 18 19 19 18 19 19 20 19 21 20 19 20 20 20 19 19 19 19 19 19 20 21 22 22 21 20 19 18 18 17 17 16 15 14 13 12 12 11
13 14 17 18 17 17 17 17 18 18 19 18 18 19 20 19 19 20 19 19 17 18 17 15 14 16 18 19 20 20 19 19 18 17 17 17 15 11 11 11 10 8 7 6
14 13 13 16 18 17 16 17 16 17 17 16 17 18 19 19 19 19 19 17 16 15 14 13 13 15 16 15 12 13 14 14 13 12 12 11 10 9 8 7 5 3 2 1
16 16 16 16 16 15 14 14 14 14 14 14 15 16 17 18 18 17 17 16 14 13 12 9 8 10 12 8 8 8 8 6 7 7 7 7 6 5 4 3 1 -1 -1 -2
15 16 16 15 15 14 14 13 13 12 12 12 11 13 13 15 15 15 14 12 12 12 10 8 5 4 5 6 6 6 5 4 4 3 3 2 2 2 1 1 -1 -1 -2 -3
15 16 15 13 13 11 12 12 11 11 10 9 9 10 10 11 10 10 9 7 7 8 8 6 4 3 3 3 4 3 2 1 1 1 -0 -1 -1 -1 -1 -1 -0 -1 -3 -4
15 10 10 11 11 9 9 10 9 8 8 8 7 7 7 7 6 5 5 4 2 1 0 1 1 0 0 3 2 1 0 -0 -1 -1 -2 -3 -3 -4 -4 -2 -1 -2 -3 -3
11 10 10 10 8 6 6 6 7 6 6 5 5 4 4 3 1 0 -0 0 -0 -1 -2 -2 -2 -3 -2 -1 2 0 -1 -2 -2 -2 -2 -3 -4 -4 -5 -6 -5 -5 -5 -5
7 7 9 6 6 5 5 5 3 2 1 0 1 1 1 -0 -1 -2 -3 -3 -3 -3 -3 -3 -4 -4 -4 -3 -3 -3 -3 -4 -4 -4 -4 -5 -5 -5 -5 -5 -5 -6 -6 -6
5 4 4 5 4 3 2 3 2 0 -1 -2 -2 -3 -3 -4 -5 -5 -5 -5 -5 -5 -5 -5 -5 -5 -5 -5 -5 -5 -5 -5 -5 -5 -5 -5 -5 -5 -6 -6 -6 -7 -7 -7
3 5 3 2 1 1 0 0 -0 -2 -2 -3 -4 -5 -6 -6 -7 -7 -7 -7 -7 -7 -7 -7 -7 -7 -6 -6 -6 -6 -6 -6 -5 -5 -5 -5 -5 -5 -5 -6 -6 -7 -7 -7
2 4 2 2 1 -1 -1 -2 -2 -3 -4 -5 -6 -6 -7 -7 -7 -8 -8 -9 -9 -9 -8 -8 -8 -7 -7 -6 -6 -5 -6 -6 -6 -6 -6 -6 -6 -6 -7 -7 -8 -9 -10 -10
0 -0 -0 -0 -0 -1 -3 -4 -4 -5 -6 -7 -8 -9 -8 -8 -8 -8 -8 -8 -9 -10 -9 -10 -9 -9 -8 -8 -7 -7 -7 -7 -7 -7 -8 -8 -8 -8 -8 -9 -9 -10 -11 -11
-2 -2 -3 -3 -3 -4 -5 -6 -7 -8 -8 -9 -9 -9 -9 -10 -10 -10 -10 -9 -9 -9 -10 -10 -10 -10 -10 -9 -8 -8 -8 -8 -8 -9 -9 -9 -9 -9 -9 -10 -10 -10 -11 -11
-4 -5 -5 -5 -6 -6 -7 -8 -8 -8 -9 -9 -9 -9 -9 -10 -10 -10 -11 -11 -12 -12 -12 -11 -11 -11 -11 -11 -10 -10 -10 -10 -10 -11 -11 -10 -11 -11 -12 -12 -12 -12 -12 -13
-6 -7 -7 -7 -8 -8 -9 -9 -9 -9 -10 -10 -10 -11 -12 -12 -12 -10 -10 -11 -13 -13 -13 -13 -13 -12 -12 -12 -11 -12 -12 -12 -12 -12 -12 -12 -13 -13 -13 -14 -14 -14 -14 -14
-7 -7 -8 -8 -8 -9 -9 -10 -10 -10 -10 -11 -11 -11 -11 -11 -12 -13 -13 -13 -14 -14 -14 -14 -15 -15 -14 -13 -13 -14 -14 -14 -14 -14 -14 -14 -14 -14 -15 -15 -15 -15 -16 -16
-7 -8 -8 -9 -9 -9 -10 -10 -11 -11 -11 -12 -12 -12 -12 -12 -12 -11 -12 -14 -15 -15 -15 -16 -16 -17 -16 -15 -15 -15 -15 -15 -16 -16 -16 -16 -16 -16 -17 -17 -17 -17 -18 -18
-8 -8 -8 -9 -9 -9 -9 -10 -10 -11 -11 -12 -13 -12 -11 -12 -13 -14 -15 -16 -17 -17 -18 -18 -18 -17 -16 -16 -16 -17 -16 -17 -17 -17 -17 -18 -17 -18 -18 -19 -19 -19 -19 -20
-8 -8 -8 -8 -8 -8 -9 -10 -10 -11 -12 -12 -13 -13 -14 -14 -14 -15 -16 -17 -18 -17 -17 -18 -19 -18 -17 -17 -18 -17 -17 -18 -18 -18 -18 -18 -19 -19 -19 -19 -20 -20 -21 -21
-8 -9 -9 -10 -9 -9 -10 -10 -10 -11 -11 -13 -14 -14 -15 -15 -16 -16 -17 -17 -18 -18 -18 -18 -19 -18 -18 -18 -18 -19 -18 -18 -19 -19 -20 -20 -20 -20 -21 -21 -22 -22 -22 -23
-10 -9 -10 -10 -11 -12 -11 -11 -11 -12 -13 -13 -14 -15 -15 -16 -17 -16 -17 -17 -18 -18 -18 -18 -19 -19 -19 -19 -19 -19 -19 -19 -21 -21 -20 -21 -21 -21 -22 -23 -23 -23 -23 -24

GFSNGP_925_temp_069.txt.gz
Temp
19 19 21 21 22 23 23 23 22 23 24 26 26 26 26 26 27 27 29 29 29 29 28 28 26 25 24 23 21 20 20 20 20 19 18 17 17 17 17 16 16 16 17 17
16 20 20 20 21 22 22 22 23 23 23 25 26 26 25 25 26 27 27 28 28 28 29 29 28 26 25 24 23 21 20 20 20 19 18 18 18 17 17 16 16 16 16 17
14 16 17 17 20 20 20 22 22 22 22 23 24 23 24 24 24 22 23 25 25 26 27 27 28 28 26 25 24 22 21 20 20 20 19 19 18 17 17 17 16 16 16 16
12 14 14 18 22 21 20 21 22 22 22 23 23 23 23 22 21 21 21 21 23 25 25 25 25 25 25 26 25 23 22 21 21 20 20 19 18 18 18 17 17 16 16 16
12 13 14 19 19 19 18 19 21 21 22 22 22 23 23 22 21 21 21 21 21 21 21 22 22 22 23 24 26 25 23 22 22 21 20 20 19 19 18 18 17 17 16 16
15 13 14 17 19 19 20 16 20 20 20 20 21 21 23 21 21 21 22 20 19 19 19 17 17 17 19 21 22 23 25 24 22 22 21 20 20 19 18 18 17 17 15 14
14 15 18 20 19 19 17 15 19 19 19 18 18 19 19 21 21 21 21 20 18 18 16 14 14 15 18 18 17 17 19 21 22 22 21 21 20 19 18 15 12 11 10 8
15 15 15 19 19 17 17 18 17 18 17 16 17 17 18 19 20 21 20 19 18 17 15 11 10 12 12 10 9 10 12 12 11 12 12 14 13 11 10 10 7 4 3 1
16 16 18 18 16 16 16 16 15 15 15 15 15 15 16 16 18 17 18 16 15 15 13 9 6 5 6 5 5 6 6 5 6 7 7 8 8 6 5 4 3 1 -1 -2
16 17 16 16 16 15 15 14 14 14 13 13 13 13 13 15 14 14 13 12 11 11 9 6 4 2 2 3 4 4 2 1 1 0 1 1 2 1 2 1 0 -1 -2 -3
17 16 17 16 14 13 13 13 13 13 12 11 11 11 11 12 10 10 9 7 7 6 5 3 1 -0 -0 0 2 2 1 -1 -1 -2 -2 -3 -3 -2 -1 -1 -0 -2 -3 -4
14 13 14 14 12 11 11 11 10 10 10 10 9 9 9 8 6 4 4 3 3 2 2 1 1 -1 -1 -1 -0 0 -1 -1 -1 -2 -3 -3 -4 -4 -4 -4 -3 -3 -4 -4
12 11 12 11 9 9 8 8 8 8 6 6 6 5 5 5 1 1 0 -1 -1 -1 -2 -2 -2 -3 -3 -2 -2 -2 -2 -2 -3 -3 -4 -4 -4 -4 -5 -5 -5 -5 -5 -5
9 9 10 8 6 6 6 6 6 5 3 1 1 0 -1 -1 -3 -3 -4 -4 -4 -4 -4 -4 -4 -5 -5 -4 -4 -4 -4 -4 -4 -4 -4 -5 -5 -5 -5 -5 -5 -6 -6 -6
7 8 6 6 5 3 3 4 3 2 1 -1 -2 -3 -3 -4 -5 -6 -6 -6 -6 -6 -6 -5 -5 -5 -5 -5 -5 -5 -4 -4 -4 -4 -5 -5 -5 -6 -6 -6 -6 -6 -7 -7
5 7 6 5 3 3 2 2 2 2 1 -1 -2 -4 -5 -5 -6 -7 -7 -7 -6 -6 -7 -7 -6 -6 -5 -4 -4 -4 -5 -5 -5 -5 -5 -5 -5 -5 -6 -7 -7 -7 -7 -7
3 3 3 3 3 2 1 1 0 -1 -2 -3 -4 -5 -5 -5 -6 -6 -7 -8 -8 -8 -8 -8 -7 -7 -6 -5 -5 -5 -5 -6 -6 -6 -5 -6 -6 -6 -7 -7 -8 -9 -9 -9
2 1 0 0 0 0 -1 -2 -3 -4 -5 -6 -7 -7 -7 -7 -7 -7 -8 -8 -9 -9 -9 -9 -9 -8 -7 -7 -6 -6 -6 -6 -7 -7 -7 -7 -7 -7 -8 -8 -8 -9 -9 -10
-1 -1 -2 -2 -2 -3 -3 -5 -6 -7 -7 -7 -8 -8 -9 -9 -9 -10 -10 -10 -10 -10 -11 -10 -10 -9 -9 -8 -7 -7 -7 -7 -7 -8 -8 -8 -8 -8 -9 -9 -9 -10 -10 -11
-3 -4 -4 -5 -5 -6 -6 -7 -7 -7 -8 -8 -8 -9 -9 -9 -9 -10 -11 -11 -11 -11 -12 -11 -10 -10 -9 -9 -8 -8 -8 -8 -9 -9 -9 -9 -9 -10 -10 -11 -10 -11 -11 -12
-5 -6 -6 -7 -7 -7 -8 -8 -8 -9 -9 -10 -10 -11 -11 -11 -12 -10 -10 -11 -12 -12 -12 -12 -12 -11 -11 -10 -10 -10 -10 -10 -10 -10 -11 -11 -11 -11 -11 -11 -12 -12 -12 -13
-6 -6 -7 -7 -7 -8 -9 -9 -9 -10 -10 -10 -10 -10 -10 -10 -11 -12 -13 -12 -13 -13 -13 -13 -14 -14 -13 -12 -12 -12 -12 -12 -12 -12 -12 -12 -12 -12 -13 -13 -13 -13 -14 -14
-6 -7 -7 -8 -8 -9 -9 -10 -10 -10 -10 -10 -10 -10 -11 -11 -11 -10 -12 -14 -14 -15 -14 -15 -15 -15 -14 -13 -13 -13 -13 -13 -14 -14 -14 -14 -14 -14 -15 -15 -15 -15 -15 -16
-6 -7 -7 -8 -8 -8 -8 -9 -9 -10 -11 -11 -12 -12 -9 -10 -11 -12 -13 -15 -15 -16 -17 -17 -16 -15 -15 -14 -14 -14 -14 -14 -14 -14 -15 -15 -15 -15 -16 -16 -16 -16 -17 -17
-7 -7 -7 -7 -6 -7 -8 -8 -9 -9 -9 -10 -11 -12 -12 -13 -13 -14 -14 -15 -16 -14 -15 -17 -16 -16 -15 -15 -15 -15 -15 -16 -17 -16 -16 -16 -16 -16 -17 -17 -18 -18 -19 -18
-6 -6 -7 -7 -7 -6 -7 -7 -7 -8 -9 -10 -11 -12 -12 -13 -13 -13 -14 -15 -15 -15 -15 -16 -17 -15 -15 -16 -16 -16 -16 -16 -16 -17 -17 -17 -17 -17 -18 -19 -19 -19 -19 -20
-7 -7 -7 -8 -9 -9 -9 -9 -8 -9 -10 -11 -11 -12 -12 -13 -14 -14 -15 -14 -15 -15 -15 -16 -16 -17 -17 -17 -16 -17 -17 -17 -18 -19 -18 -18 -18 -19 -19 -20 -20 -21 -21 -21

GFSNGP_925_temp_072.txt.gz
Temp
13 14 16 16 18 19 19 20 21 22 22 23 21 23 26 26 26 27 27 27 28 27 27 27 26 25 24 23 21 21 20 20 20 18 18 17 16 16 16 16 17 17 17 16
13 16 16 14 19 19 18 20 22 23 22 24 25 25 24 23 22 22 23 24 25 26 26 26 27 26 25 24 23 21 20 20 20 20 19 18 17 17 17 17 16 17 17 17
12 13 15 17 17 18 20 21 21 20 19 22 23 23 22 21 21 21 21 21 22 23 23 23 24 24 25 25 24 23 21 20 20 20 20 19 18 17 17 17 17 16 16 16
11 12 14 17 17 18 19 18 18 19 20 22 23 23 22 21 21 20 21 20 20 20 20 20 19 18 19 21 23 24 23 22 21 20 20 20 19 18 18 17 17 16 16 16
11 12 13 17 15 16 19 16 16 18 20 22 22 21 20 21 21 20 21 20 19 18 17 16 15 15 17 19 21 22 22 23 22 21 20 20 20 19 18 17 17 16 16 16
12 12 13 15 16 14 13 12 16 17 19 18 20 18 18 19 20 21 21 19 19 16 14 12 11 13 13 12 11 12 12 13 14 21 21 21 20 19 19 18 17 17 17 15
13 12 16 19 16 15 13 13 15 17 17 16 16 16 17 18 19 20 20 18 17 15 11 8 7 9 8 8 7 7 8 8 8 8 11 15 20 20 19 18 17 13 12 9
13 14 14 17 17 16 15 15 17 16 15 15 15 16 16 17 16 17 16 14 14 14 10 6 4 5 5 4 5 4 4 4 4 4 4 5 9 10 13 12 10 8 6 4
15 15 16 16 16 16 16 15 14 14 14 14 14 14 14 14 14 14 12 11 10 9 8 4 2 2 2 2 3 3 4 1 0 1 1 1 1 3 4 4 3 2 1 -2
16 15 15 15 15 15 14 14 13 13 13 12 12 12 12 11 10 9 8 7 6 6 5 3 1 1 0 0 2 1 1 2 0 -0 -3 -3 -2 -2 -1 0 -0 -1 -2 -3
12 11 10 12 12 13 12 12 12 12 11 10 10 10 10 8 6 5 4 3 3 2 1 1 -0 -1 -1 -1 0 0 -1 -1 -2 -3 -3 -4 -4 -4 -4 -3 -1 -3 -4 -4
10 12 10 10 10 11 10 10 10 9 8 8 7 7 7 4 3 1 0 -0 -1 -1 -2 -2 -3 -3 -3 -2 -2 -1 -2 -3 -3 -3 -4 -4 -4 -5 -4 -4 -4 -4 -4 -4
9 11 10 10 8 8 8 8 8 7 5 5 4 3 3 1 -1 -2 -3 -3 -3 -4 -3 -4 -4 -4 -4 -4 -3 -3 -3 -3 -4 -4 -4 -5 -5 -5 -5 -6 -6 -5 -5 -5
9 10 9 6 6 6 6 6 5 4 2 1 1 -0 -1 -2 -3 -4 -4 -5 -5 -5 -5 -5 -4 -4 -4 -4 -4 -4 -4 -4 -4 -5 -5 -5 -5 -5 -6 -6 -6 -6 -6 -6
7 8 6 6 5 5 5 5 4 2 0 -1 -2 -3 -3 -4 -5 -6 -6 -6 -6 -6 -6 -6 -6 -5 -4 -4 -4 -4 -4 -4 -4 -5 -5 -5 -6 -6 -6 -6 -6 -7 -7 -7
6 5 6 5 5 4 3 3 2 1 -0 -2 -3 -4 -5 -5 -6 -6 -7 -8 -7 -7 -8 -7 -7 -6 -5 -5 -5 -5 -5 -5 -5 -5 -6 -6 -7 -7 -7 -8 -8 -8 -8 -8
3 2 2 2 2 1 0 -0 -0 -2 -3 -4 -5 -5 -5 -6 -6 -7 -8 -9 -9 -9 -9 -9 -8 -8 -6 -6 -6 -6 -6 -6 -6 -6 -7 -7 -7 -8 -8 -9 -9 -9 -9 -10
1 -0 -0 -0 -1 -1 -2 -3 -4 -5 -6 -7 -7 -8 -8 -9 -9 -9 -10 -10 -10 -11 -10 -10 -10 -9 -8 -7 -7 -7 -7 -7 -8 -8 -8 -8 -8 -8 -8 -9 -9 -10 -10 -11
-2 -2 -3 -3 -3 -4 -4 -5 -6 -7 -7 -8 -8 -9 -9 -10 -10 -11 -11 -11 -11 -11 -12 -11 -10 -10 -9 -9 -8 -8 -8 -8 -9 -9 -9 -9 -10 -10 -10 -10 -10 -11 -11 -12
-4 -5 -5 -6 -6 -6 -7 -7 -8 -8 -9 -9 -10 -10 -11 -11 -9 -10 -12 -12 -12 -12 -12 -12 -10 -10 -10 -10 -9 -9 -10 -9 -9 -10 -10 -10 -10 -10 -10 -11 -11 -12 -12 -12
-6 -6 -7 -7 -7 -8 -8 -8 -9 -9 -10 -10 -10 -11 -11 -12 -12 -11 -10 -11 -13 -12 -13 -13 -13 -12 -11 -11 -11 -11 -11 -11 -11 -11 -11 -11 -11 -12 -12 -12 -12 -13 -13 -13
-6 -7 -7 -8 -8 -8 -9 -9 -10 -10 -10 -10 -10 -10 -10 -11 -12 -13 -13 -12 -13 -13 -14 -14 -14 -13 -12 -12 -12 -12 -12 -13 -13 -13 -13 -13 -13 -13 -14 -14 -14 -14 -15 -15
-6 -7 -7 -8 -8 -9 -9 -10 -10 -10 -10 -11 -11 -10 -11 -11 -11 -12 -13 -14 -15 -15 -15 -15 -15 -14 -13 -13 -13 -13 -13 -13 -14 -14 -14 -14 -15 -15 -15 -16 -15 -16 -16 -16
-6 -6 -7 -7 -7 -7 -8 -9 -9 -10 -10 -11 -11 -11 -11 -10 -12 -13 -14 -15 -15 -15 -16 -16 -15 -15 -14 -14 -14 -14 -15 -15 -15 -15 -15 -15 -15 -15 -16 -16 -17 -17 -17 -17
-6 -6 -6 -6 -6 -6 -7 -8 -8 -8 -8 -9 -10 -11 -12 -13 -13 -14 -14 -14 -14 -14 -15 -15 -15 -15 -15 -15 -15 -15 -15 -16 -16 -16 -16 -16 -16 -16 -17 -18 -18 -18 -18 -19
-5 -6 -6 -7 -6 -6 -6 -6 -6 -7 -8 -10 -11 -11 -12 -12 -13 -13 -14 -14 -15 -14 -15 -15 -16 -16 -16 -16 -16 -16 -16 -16 -17 -17 -17 -17 -17 -17 -18 -19 -19 -19 -19 -20
-6 -6 -6 -7 -8 -9 -9 -9 -8 -9 -10 -10 -11 -11 -12 -13 -13 -13 -14 -14 -14 -14 -15 -15 -15 -16 -16 -17 -16 -16 -16 -17 -17 -18 -18 -18 -18 -18 -19 -20 -20 -21 -21 -21

GFSNGP_925_temp_078.txt.gz
Temp
11 13 13 13 13 13 12 12 14 17 17 16 15 15 17 18 18 17 17 16 16 15 14 14 14 15 17 16 15 14 13 13 13 13 13 13 14 14 14 13 13 13 13 13
10 13 14 13 13 14 14 13 13 15 16 15 14 14 17 17 18 17 16 15 13 13 12 12 13 13 13 13 14 16 15 13 13 13 12 12 13 13 14 13 13 13 13 13
9 12 12 11 13 14 15 14 15 14 16 14 14 14 14 16 16 15 14 13 11 10 9 9 9 10 9 10 10 13 14 15 14 14 13 13 13 13 13 13 13 13 13 13
9 10 11 13 14 14 13 13 16 16 15 13 13 13 12 14 14 12 11 9 8 8 7 6 7 7 7 7 8 8 8 8 9 10 10 12 13 13 12 13 12 12 13 13
8 10 12 13 12 13 10 11 13 14 14 13 14 13 11 10 11 10 9 8 6 5 5 4 5 5 5 5 5 5 6 6 5 6 7 8 9 10 12 13 13 13 13 13
8 10 11 12 13 13 13 12 12 13 12 12 13 11 9 9 9 8 8 6 4 3 3 3 3 4 3 3 3 3 3 3 2 3 4 4 5 6 8 9 10 13 12 10
9 10 11 14 13 13 12 12 11 11 11 11 10 10 9 8 6 6 6 5 4 2 2 1 1 2 2 2 2 1 0 -0 -0 -1 0 0 2 3 5 5 6 5 4 2
9 10 11 14 13 11 10 10 10 10 10 10 9 8 7 6 4 4 4 3 3 2 1 -0 -1 0 1 0 1 0 -1 -2 -3 -3 -2 -1 -1 -1 1 3 2 0 -1 -2
11 11 11 11 10 10 10 9 9 10 10 9 7 6 5 4 3 2 1 1 1 1 -0 -1 -2 -2 -1 -1 -0 -1 -2 -3 -3 -4 -4 -3 -3 -3 -2 -2 -1 -2 -2 -3
12 8 8 9 10 9 8 8 7 7 8 7 6 4 3 2 1 0 -0 -0 -0 -1 -1 -2 -3 -3 -3 -2 -1 -2 -2 -4 -4 -4 -4 -4 -4 -4 -4 -3 -3 -3 -3 -4
7 6 7 6 5 7 8 7 5 4 4 5 3 2 1 -0 -1 -2 -2 -2 -2 -2 -2 -3 -3 -3 -3 -3 -2 -3 -3 -4 -4 -4 -5 -5 -5 -5 -4 -4 -4 -4 -4 -4
7 5 5 5 5 6 4 3 4 3 1 1 1 -0 -1 -2 -3 -3 -3 -4 -4 -4 -4 -4 -4 -4 -4 -4 -4 -4 -4 -4 -4 -5 -5 -5 -5 -6 -6 -5 -5 -5 -5 -5
5 3 3 4 5 4 2 1 0 0 -0 -2 -2 -2 -3 -3 -4 -5 -5 -6 -6 -6 -6 -5 -5 -5 -5 -5 -5 -5 -5 -5 -5 -6 -6 -6 -6 -6 -6 -7 -8 -7 -7 -6
4 4 3 3 2 3 2 0 -1 -3 -3 -3 -4 -4 -4 -5 -6 -7 -7 -8 -8 -8 -8 -8 -7 -6 -6 -6 -6 -6 -6 -6 -7 -7 -7 -7 -7 -7 -8 -8 -9 -9 -9 -8
3 4 3 2 1 1 1 -0 -2 -3 -4 -5 -5 -6 -7 -8 -9 -9 -9 -9 -9 -9 -9 -9 -8 -7 -7 -7 -7 -7 -7 -7 -7 -7 -8 -8 -8 -8 -9 -9 -10 -10 -10 -9
1 1 1 -0 -1 -1 -1 -2 -2 -3 -4 -5 -6 -7 -9 -9 -10 -11 -11 -11 -10 -10 -10 -10 -9 -8 -7 -7 -7 -7 -7 -7 -7 -8 -8 -8 -9 -9 -10 -10 -11 -11 -11 -12
-0 -1 -1 -2 -3 -3 -4 -4 -5 -6 -7 -7 -7 -8 -9 -9 -10 -11 -12 -12 -11 -11 -11 -10 -10 -9 -8 -8 -8 -8 -8 -8 -8 -9 -9 -9 -10 -10 -11 -11 -12 -13 -13 -13
-4 -4 -4 -3 -4 -5 -5 -6 -7 -7 -8 -9 -10 -10 -11 -12 -12 -12 -12 -12 -11 -11 -11 -11 -10 -10 -9 -9 -9 -9 -9 -10 -10 -10 -10 -10 -11 -11 -12 -12 -13 -13 -14 -14
-5 -5 -5 -6 -6 -6 -7 -8 -9 -10 -10 -10 -11 -12 -12 -12 -13 -13 -13 -13 -13 -13 -13 -11 -11 -11 -10 -10 -10 -10 -10 -10 -11 -11 -11 -11 -12 -12 -13 -13 -13 -14 -14 -15
-7 -7 -8 -9 -9 -9 -10 -10 -10 -10 -10 -10 -11 -12 -12 -13 -13 -13 -14 -14 -14 -14 -13 -12 -12 -12 -12 -11 -11 -11 -11 -12 -12 -12 -12 -13 -13 -14 -14 -14 -14 -15 -15 -16
-11 -10 -11 -11 -11 -10 -10 -10 -10 -11 -11 -10 -11 -13 -13 -13 -13 -13 -14 -15 -15 -14 -13 -13 -13 -13 -13 -13 -12 -12 -13 -13 -13 -13 -14 -14 -14 -15 -15 -15 -15 -15 -16 -16
-10 -11 -11 -10 -11 -11 -10 -10 -10 -11 -11 -11 -12 -12 -13 -14 -14 -15 -15 -15 -15 -14 -14 -14 -14 -14 -14 -14 -14 -14 -14 -14 -14 -15 -15 -15 -15 -15 -16 -16 -17 -17 -17 -17
-9 -9 -10 -10 -10 -10 -10 -10 -10 -10 -11 -11 -12 -12 -13 -13 -14 -14 -15 -15 -15 -15 -15 -15 -15 -15 -15 -15 -15 -15 -15 -15 -16 -16 -16 -16 -16 -16 -17 -17 -18 -18 -18 -18
-8 -9 -9 -9 -10 -10 -10 -11 -11 -11 -11 -11 -12 -12 -13 -14 -14 -15 -15 -15 -15 -15 -15 -15 -15 -15 -16 -16 -16 -16 -16 -16 -16 -17 -17 -17 -17 -17 -18 -18 -18 -19 -19 -19
-7 -8 -9 -9 -10 -10 -10 -10 -11 -11 -11 -12 -12 -12 -13 -13 -13 -14 -14 -15 -15 -15 -15 -15 -16 -16 -16 -16 -17 -17 -17 -17 -17 -18 -18 -18 -18 -18 -19 -19 -19 -19 -20 -20
-7 -8 -8 -9 -9 -9 -10 -9 -10 -11 -12 -12 -13 -13 -13 -14 -14 -14 -14 -15 -15 -15 -15 -16 -16 -16 -16 -16 -17 -17 -17 -17 -18 -18 -18 -18 -19 -19 -19 -20 -20 -20 -21 -21
-7 -8 -9 -10 -10 -10 -10 -11 -11 -12 -12 -12 -13 -13 -13 -14 -14 -14 -14 -15 -15 -15 -15 -16 -16 -16 -17 -17 -17 -17 -17 -18 -18 -18 -18 -19 -19 -19 -20 -20 -20 -20 -21 -21